Location: Aultman
(40.9284°N, 81.4173°W)
Time: 08:17:37
(UTC+00:00)

Cosmos 405 - Pass Details

Date: 24 January 2021
Orbit: 448 x 462 km, 81.3° (Epoch: 02 March)

Event Time Altitude Azimuth Distance (km) Brightness Sun altitude
Rises 23:39:19 0° 3° (N) 2,502 6.5 -12.5°
Reaches altitude 10° 23:41:41 10° 17° (NNE) 1,620 5.4 -13.0°
Maximum altitude 23:44:39 25° 74° (ENE) 981 4.0 -13.5°
Enters shadow 23:45:06 24° 87° (E) 998 4.0 -13.6°
